星链-31012 (STARLINK-31012 )

导读

STARLINK-31012是美国SpaceX公司星链(Starlink)星座中的一颗卫星,于2023年12月8日发射入轨。星链项目旨在构建全球卫星互联网星座,为全球偏远地区、海洋等网络覆盖薄弱区域提供高速互联网接入服务,STARLINK-31012加入后进一步扩充了星链星座的服务覆盖能力与网络容量。

Basic Information
目录编号:
58531
目录名称:
STARLINK-31012
国际标识:
2023-192A
轨道中心:
EARTH
卫星名称:
星链-31012
卫星全名:
星链-31012 (STARLINK-31012 )
卫星状态:
在轨 (已飞行923 天)
发射日期:
2023-12-08 UTC
国别 :
美国 (US)
星等 :
--
Orbit Information
数据来源 国际轨道数据
星历时间: 2026-06-18T01:31:33+0800
15小时前
查看轨道信息
半长轴: 6853.369km
偏心率: 0.0000923
轨道倾角: 53.162°
近地点辐角 77.584°
升交点赤经 317.950°
平近点角 282.526°
近地点: 474.599km
远地点: 475.865km
周期: 94.106分钟
每日圈数: 15.301945
Detailed Information
固有亮度:
5
最大亮度:
0.3
卫星平台:
Starlink v2.0 mini
覆盖范围:
全球
运营商:
太空探索技术公司
运营商所在国:
美国
制造商(研发单位):
太空探索技术公司
制造商所在国:
美国
使用方式:
暂无
Satellite Introduction
星链(Starlink)计划是由太空探索技术公司(SpaceX)提出的一个巨型低轨卫星互联网星座项目,计划在2019年至2024年间在太空搭建由约1.2万颗卫星组成的“星链”网络,其中1584颗将部署在地球上空550千米处的近地轨道,并从2020年开始工作。该卫星仍在工作。
2D Orbit Map
3D Orbit Map
Orbit Altitude Analysis Chart
Orbit Inclination Analysis Chart
Orbit Comprehensive Analysis Chart
View Comprehensive Chart